COSMOS 1275 DEB, 12650

Orbit data source: Space-Track

COSMOS 1275 DEB, 12650 is space debris in LEO originally from a launch on Thu, 04 Jun 1981 UTC launched from the Plesetsk Missile And Space Complex (PKMTR). Debris objects in space refer to the collection of defunct objects orbiting the Earth. Examples of debris include non-operational satellites, rocket bodies, and fragments generated from explosions, collisions, or faulty payload assembly.

Loading next visibility...
Identifier
12650, 1981-053E
Orbit
LEO
Country
Flag of CISCIS
Related business
Manufacturer
Unknown
Mission
Spacecraft
Bus & Motor
Unknown
Mass
Unknown
Launch date (UTC)
1981-06-04 (45 years ago)
Launch vehicle
Unknown
Launch site
Plesetsk Missile And Space Complex (PKMTR)
Object type
Payload
Rocket body
Debris
Shape & HBR
Unknown shape, 0.3 m
Radar Cross Section
Medium (>0.1 m² and <1 m²)

Expand to show TLE details & history
Last TLE update: 1 day ago

TLE from 1 day ago
0 COSMOS 1275 DEB
1 12650U 81053E   26171.44906851  .00000452  00000-0  40621-3 0  9992
2 12650  82.9348 229.0303 0065186 174.4337 197.5315 13.81037554251695
Epoch: 2026-06-20T10:46Z
TLE epoch observation values (Epoch: 2026-06-20T10:46:39.519Z)
Latitude
11.6066°
Longitude
160.15324°
Altitude
1,008.011 km
Speed
7.326 km/s
True Right ascension
15h 21m 55s
True Declination
11° 32' 29"
Sunlit
Object was in full shadow at epoch
Visualization orbit readout
Latitude
Unknown
Longitude
Unknown
Altitude
Unknown
Speed
Unknown
Apparent Right ascension
Unknown
Apparent Declination
Unknown
Sunlit
N/A
Visualization observer readout
Local Sidereal Time
02:43:48
Azimuth
Unknown
Elevation
Unknown
Doppler factor
Unknown
Orbital elements
Apogee altitude
1,005.167 km
Perigee altitude
909.532 km
Semi-major axis
7,335.487 km
Eccentricity
0.00652
Inclination
82.9348°
RAAN
229.0303°
Arg. of periapsis
174.4337°
True anomaly
197.30822°
Mean anomaly
197.5315°
Eccentric anomaly
197.41969°
Mean motion
3.45462 °/min
Orbital period
104.21 mins
BSTAR
0.00040621
Loading maneuver chart data...
Computing Atmospheric mass density...

Documentation

Showing up to 5 results
|